SCP
0 0 0 0 0 0 0 -0 -0 -0 -0 -0 -0 -0 0 -0 -0 -0 -0 -0 -0 -0 -0 -0 -0 -0 -0 -0 -0 -0 -0 -0 -0 -0 -0 -0 -0 -0 -0 -0 -0 -0 -0
0 0 0 0 0 0 0 -0 -0 -0 -0 -0 -0 -0 -0 0 -0 -0 -0 -0 -0 -0 -0 -0 -0 -0 -0 -0 -0 -0 -0 -0 -0 -0 -0 -0 -0 -0 -0 -0 -0 -0 -0
0 0 0 0 0 0 -0 -0 -0 -0 -0 -0 -0 -0 -0 -0 0 -0 -0 -0 -0 -0 -0 -0 -0 -0 -0 -0 -0 -0 -0 -0 -0 -0 -0 0 0 -0 -0 -0 -0 -0 -0
0 0 0 0 0 -0 -0 -0 -0 -0 -0 -0 -0 -0 -0 -0 -0 -0 -0 -0 -0 -0 -0 -0 -0 -0 -0 -0 -0 -0 -0 -0 -0 -0 -0 -0 -0 -0 -0 -0 -0 -0 -0
0 0 0 -0 -0 0 0 -0 -0 -0 -0 -0 -0 -0 -0 -0 -0 -0 -0 -0 -0 -0 -0 -0 -0 -0 -0 -0 -0 -0 -0 -0 -0 -0 0 0 -0 -0 -0 -0 -0 -0 -0
0 0 -0 -0 -0 -0 -0 -0 -0 -0 -0 -0 -0 -0 -0 -0 -0 -0 -0 -0 -0 0 -0 -0 -0 -0 -0 -0 -0 -0 -0 -0 -0 0 0 0 0 -0 -0 -0 -0 -0 -0
0 0 -0 -0 -0 -0 -0 -0 0 -0 -0 -0 -0 -0 -0 -0 -0 -0 -0 -0 -0 -0 0 0 0 -0 -0 -0 -0 -0 -0 -0 -0 -0 -0 -0 -0 -0 -0 -0 -0 -0 -0
0 0 0 -0 -0 -0 -0 -0 -0 -0 -0 -0 -0 -0 -0 -0 -0 0 0 -0 -0 0 -0 -0 -0 -0 -0 -0 -0 -0 -0 -0 -0 -0 -0 0 -0 -0 -0 -0 -0 -0 -0
0 0 0 0 0 -0 -0 -0 -0 -0 0 0 0 -0 0 0 0 0 0 0 -0 -0 -0 -0 -0 -0 -0 -0 -0 -0 -0 -0 -0 0 0 0 0 -0 -0 -0 -0 -0 0
0 0 0 0 0 0 0 -0 -0 -0 -0 -0 -0 -0 -0 0 0 0 0 0 0 -0 -0 -0 -0 -0 -0 -0 -0 -0 -0 -0 0 0 0 0 0 0 0 0 0 0 0
0 0 0 0 0 0 0 0 0 -0 -0 -0 0 -0 -0 0 0 0 0 0 0 0 0 -0 -0 -0 -0 -0 -0 0 0 0 0 0 0 0 0 0 0 0 0 0 0
0 0 0 0 0 0 0 0 0 0 0 0 0 0 0 0 0 0 0 0 0 0 0 0 0 0 0 0 0 0 0 0 0 0 0 0 0 0 0 0 0 0 0
0 0 0 0 0 0 0 0 0 0 0 0 0 0 0 0 0 0 0 0 0 0 0 0 0 0 0 0 0 0 0 0 0 0 0 0 0 0 0 0 0 0 0
0 0 0 0 0 0 0 0 0 0 0 0 0 0 0 0 0 0 0 0 0 0 0 0 0 0 0 0 0 0 0 0 0 0 0 0 0 0 0 0 0 0 0
0 0 0 0 0 0 0 0 0 0 0 0 0 0 0 0 0 0 0 0 0 0 0 0 0 0 0 0 0 0 0 0 0 0 0 0 0 0 0 0 0 0 0
0 0 0 0 0 0 0 0 0 0 0 0 0 0 0 0 0 0 0 0 0 0 0 0 0 0 0 0 0 0 0 0 0 0 0 0 0 0 0 0 0 0 0
0 0 0 0 0 0 0 0 0 0 0 0 0 0 0 0 0 0 0 0 0 0 0 0 0 0 0 0 0 0 0 0 0 0 0 0 0 0 0 0 0 0 0
0 0 0 0 0 0 0 0 0 0 0 0 0 0 0 0 0 0 0 0 0 0 0 0 0 0 0 0 0 0 0 0 0 0 0 0 0 0 0 0 0 0 0
0 0 0 0 0 0 0 0 0 0 0 0 0 0 0 0 0 0 0 0 0 0 0 0 0 0 0 0 0 0 0 0 0 0 0 0 0 0 0 0 0 0 0
0 0 0 0 0 0 0 0 0 0 0 0 0 0 0 0 0 0 0 0 0 0 0 0 0 0 0 0 0 0 0 0 0 0 0 0 0 0 0 0 0 0 0
0 0 0 0 0 0 0 0 0 0 0 0 0 0 0 0 0 0 0 0 0 0 0 0 0 0 0 0 0 0 0 0 0 0 0 0 0 0 0 0 0 0 0
0 0 0 0 0 0 0 0 0 0 0 0 0 0 0 0 0 0 0 0 0 0 0 0 0 0 0 0 0 0 0 0 0 0 0 0 0 0 0 0 0 0 0
0 0 0 0 0 0 0 0 0 0 0 0 0 0 0 0 0 0 0 0 0 0 0 0 0 0 0 0 0 0 0 0 0 0 0 0 0 0 0 0 0 0 0
0 0 0 0 0 0 0 0 0 0 0 0 0 0 0 0 0 0 0 0 0 0 0 0 0 0 0 0 0 0 0 0 0 0 0 0 0 0 0 0 0 0 0
0 0 0 0 0 0 0 0 0 0 0 0 0 0 0 0 0 0 0 0 0 0 0 0 0 0 0 0 0 0 0 0 0 0 0 0 0 0 0 0 0 0 0
0 0 0 0 0 0 0 0 0 0 0 0 0 0 0 0 0 0 0 0 0 0 0 0 0 0 0 0 0 0 0 0 0 0 0 0 0 0 0 0 0 0 0
Wind_Speed_500mb
28 18 19 18 17 17 19 19 20 21 23 22 25 27 27 26 23 25 31 35 29 27 32 32 30 30 32 32 31 30 31 30 29 28 29 29 29 30 31 28 27 27 28
27 19 20 19 18 18 19 20 20 20 19 21 24 25 25 26 26 26 28 26 26 29 28 30 27 29 31 33 33 32 29 28 28 28 25 24 25 25 27 25 24 25 25
24 15 20 19 19 18 20 20 19 17 18 20 23 25 26 25 26 26 26 28 29 31 31 29 28 29 30 31 30 30 28 26 26 25 21 21 21 21 22 22 22 23 23
18 15 18 21 19 19 20 21 20 17 18 19 21 22 24 25 24 25 26 27 29 29 29 29 27 28 28 28 28 28 28 27 26 22 20 20 20 20 18 18 19 20 22
17 17 18 21 20 20 20 19 19 20 17 21 16 18 21 23 22 21 22 23 26 29 28 26 24 22 23 24 24 25 25 26 27 25 23 20 20 18 17 16 16 16 15
16 18 19 20 21 21 20 19 19 19 18 19 14 15 17 17 17 19 20 20 21 22 24 22 21 19 18 19 20 21 23 24 22 24 22 20 19 16 14 15 15 15 14
18 22 20 20 20 21 20 19 19 19 18 17 14 13 12 12 13 15 17 17 17 19 18 18 16 15 14 16 16 17 20 19 18 19 20 19 15 13 15 15 15 15 14
10 16 22 20 19 19 19 19 18 18 16 15 11 9 7 9 10 11 11 13 13 13 14 12 10 11 11 12 13 13 17 18 16 16 17 17 18 16 14 12 10 11 13
15 10 21 20 21 19 19 19 18 17 17 16 13 10 8 7 9 8 7 7 7 8 7 6 5 7 9 10 9 10 12 14 14 14 16 17 16 15 14 15 15 15 16
20 14 18 23 23 23 21 19 19 18 15 12 11 9 7 6 8 8 7 7 6 6 5 4 2 2 5 8 8 7 8 9 9 11 12 13 14 11 11 12 13 15 18
24 21 20 25 24 23 21 21 19 16 14 12 10 9 10 10 10 9 7 8 9 8 7 5 3 2 3 5 6 7 6 6 8 8 10 10 9 11 11 10 13 16 18
30 24 23 27 25 24 23 23 21 19 16 14 12 11 12 10 12 11 9 9 10 9 8 7 6 5 6 6 7 7 8 8 9 10 12 12 13 14 14 17 19 20 20
25 25 23 28 27 25 24 23 22 20 18 16 14 14 14 8 8 9 9 9 10 11 12 12 10 10 9 8 8 9 9 9 11 13 15 15 17 19 20 22 24 25 25
29 23 23 25 27 27 25 22 21 19 17 16 16 16 13 9 8 8 8 11 11 17 15 9 9 11 11 11 12 13 13 12 13 15 17 17 17 19 22 24 25 25 25
30 26 25 26 26 27 25 23 22 21 18 16 15 15 14 10 9 9 8 8 11 12 7 8 12 15 16 17 18 18 18 17 17 18 18 19 21 21 20 22 24 25 25
32 29 27 27 26 25 24 22 18 18 17 17 16 14 14 13 11 12 11 11 13 16 16 17 18 18 20 21 22 21 20 21 20 20 18 17 16 17 18 21 22 24 25
32 29 30 27 26 24 23 21 21 18 19 16 13 12 13 12 15 18 19 17 18 19 20 22 23 22 22 22 22 22 21 21 21 19 17 17 17 19 20 22 25 26 26
33 33 31 30 28 24 20 19 19 20 19 18 16 14 10 13 15 21 23 23 25 25 25 25 25 24 24 24 24 24 23 23 22 21 20 19 18 19 21 23 24 25 26
36 33 33 32 28 23 19 17 18 21 21 20 19 17 14 16 19 21 23 26 28 28 27 28 27 27 26 26 25 24 24 25 25 24 23 21 19 18 19 19 23 26 28
42 38 35 32 29 26 24 23 21 23 23 22 21 19 19 21 24 25 26 28 29 29 29 29 30 30 29 28 27 27 27 26 26 27 26 23 20 18 17 21 24 28 30
42 45 42 39 33 34 33 30 24 20 19 21 22 22 23 25 26 26 27 29 31 31 31 31 32 32 31 30 30 30 28 28 29 29 28 24 23 21 21 23 28 29 30
35 40 43 40 37 34 34 29 22 14 14 16 20 24 26 27 27 28 30 31 32 33 34 34 35 35 35 32 32 31 22 25 26 26 27 26 25 24 22 26 32 34 37
34 34 38 40 39 39 38 35 30 22 16 15 16 19 23 26 28 30 32 33 34 36 36 37 38 38 37 37 35 28 14 10 14 22 27 29 28 25 23 29 34 37 38
28 31 33 35 37 38 40 40 35 27 20 15 16 19 21 25 28 32 35 35 36 38 39 40 41 42 43 41 41 40 40 41 25 19 25 23 25 25 24 31 35 37 38
21 25 28 30 31 32 36 38 37 34 30 25 24 24 24 27 31 33 36 39 39 41 41 43 45 47 47 48 46 47 46 45 47 45 46 33 28 25 30 36 37 37 36
31 27 24 23 26 28 30 32 34 36 34 33 31 30 30 32 32 33 33 37 41 44 45 47 49 52 52 54 53 53 54 52 49 47 48 47 45 37 36 40 38 34 35
Wind_Direction_500mb
160 159 151 148 144 137 129 123 112 99 93 97 101 102 105 106 99 89 102 97 83 85 86 90 88 86 82 80 76 72 70 69 70 72 72 72 72 72 72 71 72 70 64
162 155 159 151 149 144 134 129 123 110 105 102 97 96 97 99 96 87 95 94 87 85 92 91 87 80 76 74 70 66 64 65 64 61 66 69 68 69 71 69 69 69 64
161 159 158 155 153 148 137 134 130 123 117 111 106 104 100 95 93 91 87 85 86 88 86 84 84 79 74 67 64 63 62 61 56 52 60 67 66 66 64 60 58 58 55
156 158 161 157 156 150 146 143 140 127 120 109 104 102 104 101 96 92 92 92 91 92 92 90 84 80 74 68 63 60 58 56 51 53 69 73 67 62 63 62 60 57 56
164 171 165 157 158 157 151 148 142 136 126 116 122 105 107 104 98 92 93 95 101 103 100 98 94 84 76 71 64 59 57 53 51 57 66 71 72 60 56 57 58 58 59
174 173 166 160 159 157 155 151 145 141 135 131 134 117 109 102 99 102 102 102 102 104 105 100 94 83 74 66 58 54 53 53 53 56 61 66 69 67 61 55 50 44 42
174 168 167 164 161 157 157 153 148 147 142 135 136 127 117 106 103 106 108 107 111 113 107 98 85 68 51 51 49 44 43 47 54 60 63 63 63 66 61 56 52 43 32
186 165 170 169 164 159 159 157 156 152 150 152 139 139 132 128 125 118 115 115 121 123 118 104 83 62 47 33 33 37 40 40 46 57 63 63 58 57 55 52 44 34 31
200 198 178 177 168 163 165 164 162 158 153 158 155 165 147 155 152 151 151 139 140 143 136 110 80 58 39 24 31 42 43 44 46 46 52 54 50 47 48 45 40 37 34
207 203 192 187 182 175 176 173 173 172 174 167 170 183 194 195 192 187 181 175 174 184 185 174 143 73 32 25 28 35 31 31 36 40 48 46 38 36 34 31 25 16 6
209 198 198 190 188 184 184 184 186 187 185 189 200 209 221 219 209 197 194 194 185 189 203 221 222 288 332 340 352 338 334 342 352 4 13 14 7 355 354 351 344 338 334
203 201 189 192 196 194 192 194 193 197 198 206 215 223 224 222 230 218 208 203 206 217 231 248 258 275 284 280 291 299 284 288 303 316 328 336 325 326 326 324 322 320 320
200 202 198 195 201 205 204 203 202 201 208 214 220 218 217 227 192 202 213 217 218 231 242 251 267 277 291 292 287 290 292 293 295 299 305 311 314 315 315 316 315 315 314
205 203 204 201 206 208 207 208 210 214 222 227 222 215 222 226 209 223 240 233 236 249 248 261 277 274 282 291 294 295 299 296 289 290 291 298 304 307 309 310 310 309 311
212 207 206 206 206 210 210 211 214 219 223 226 228 227 234 233 242 237 265 261 256 281 295 291 290 283 286 287 289 289 290 292 291 292 294 298 302 307 312 315 318 320 319
215 213 213 212 211 216 216 219 221 224 225 227 231 234 240 247 246 250 266 280 275 280 285 293 294 291 293 292 293 291 290 291 290 292 296 301 308 310 315 319 321 323 323
226 217 219 218 215 217 218 223 225 224 226 228 234 238 248 249 254 253 264 275 288 288 290 292 293 293 290 289 288 287 285 287 287 289 294 302 307 311 316 319 322 325 326
231 228 224 220 218 218 217 225 232 233 237 236 237 242 255 269 287 267 267 277 288 288 289 293 293 293 290 288 285 282 281 282 284 287 291 296 301 306 311 319 325 329 328
235 231 227 225 223 222 220 226 236 239 246 248 249 258 274 281 292 285 275 276 281 285 289 293 296 295 293 290 286 282 278 278 281 283 286 290 294 298 305 316 322 324 322
235 231 229 227 223 219 222 228 237 243 248 247 250 261 272 279 287 288 284 281 281 284 289 292 294 294 293 290 286 283 281 280 279 278 279 282 286 293 301 313 316 317 314
233 229 225 223 220 219 219 225 237 253 259 262 266 270 273 278 284 287 286 285 284 285 286 288 291 291 288 288 286 285 283 280 277 274 273 272 278 285 297 306 311 311 307
224 227 225 227 228 228 229 233 241 258 269 271 271 273 275 281 287 291 290 287 284 284 285 287 289 290 289 286 283 287 291 282 273 265 264 266 271 276 288 302 305 305 307
206 213 218 225 229 230 232 232 238 241 258 280 306 309 300 289 289 289 290 287 284 283 283 283 285 285 284 281 280 271 283 267 291 281 267 267 263 265 280 297 303 309 307
192 200 205 215 222 227 232 235 243 254 270 296 311 315 306 297 295 290 287 285 284 283 282 282 281 280 279 278 277 272 267 267 277 281 278 265 260 267 290 301 307 304 299
151 175 189 199 209 220 228 235 242 253 263 277 293 304 304 300 303 297 288 284 285 286 286 283 280 279 278 276 274 273 269 268 264 263 277 277 267 267 296 301 301 299 295
113 134 157 179 192 203 214 224 232 242 253 262 273 281 286 292 295 287 287 287 287 286 287 287 284 279 276 275 272 270 267 265 270 270 268 274 272 272 293 296 299 301 293
Wind_Speed_850mb
28 18 19 18 17 17 19 19 20 21 23 22 25 27 27 26 23 25 31 35 29 27 32 32 30 30 32 32 31 30 31 30 29 28 29 29 29 30 31 28 27 27 28
27 19 20 19 18 18 19 20 20 20 19 21 24 25 25 26 26 26 28 26 26 29 28 30 27 29 31 33 33 32 29 28 28 28 25 24 25 25 27 25 24 25 25
24 15 20 19 19 18 20 20 19 17 18 20 23 25 26 25 26 26 26 28 29 31 31 29 28 29 30 31 30 30 28 26 26 25 21 21 21 21 22 22 22 23 23
18 15 18 21 19 19 20 21 20 17 18 19 21 22 24 25 24 25 26 27 29 29 29 29 27 28 28 28 28 28 28 27 26 22 20 20 20 20 18 18 19 20 22
17 17 18 21 20 20 20 19 19 20 17 21 16 18 21 23 22 21 22 23 26 29 28 26 24 22 23 24 24 25 25 26 27 25 23 20 20 18 17 16 16 16 15
16 18 19 20 21 21 20 19 19 19 18 19 14 15 17 17 17 19 20 20 21 22 24 22 21 19 18 19 20 21 23 24 22 24 22 20 19 16 14 15 15 15 14
18 22 20 20 20 21 20 19 19 19 18 17 14 13 12 12 13 15 17 17 17 19 18 18 16 15 14 16 16 17 20 19 18 19 20 19 15 13 15 15 15 15 14
10 16 22 20 19 19 19 19 18 18 16 15 11 9 7 9 10 11 11 13 13 13 14 12 10 11 11 12 13 13 17 18 16 16 17 17 18 16 14 12 10 11 13
15 10 21 20 21 19 19 19 18 17 17 16 13 10 8 7 9 8 7 7 7 8 7 6 5 7 9 10 9 10 12 14 14 14 16 17 16 15 14 15 15 15 16
20 14 18 23 23 23 21 19 19 18 15 12 11 9 7 6 8 8 7 7 6 6 5 4 2 2 5 8 8 7 8 9 9 11 12 13 14 11 11 12 13 15 18
24 21 20 25 24 23 21 21 19 16 14 12 10 9 10 10 10 9 7 8 9 8 7 5 3 2 3 5 6 7 6 6 8 8 10 10 9 11 11 10 13 16 18
30 24 23 27 25 24 23 23 21 19 16 14 12 11 12 10 12 11 9 9 10 9 8 7 6 5 6 6 7 7 8 8 9 10 12 12 13 14 14 17 19 20 20
25 25 23 28 27 25 24 23 22 20 18 16 14 14 14 8 8 9 9 9 10 11 12 12 10 10 9 8 8 9 9 9 11 13 15 15 17 19 20 22 24 25 25
29 23 23 25 27 27 25 22 21 19 17 16 16 16 13 9 8 8 8 11 11 17 15 9 9 11 11 11 12 13 13 12 13 15 17 17 17 19 22 24 25 25 25
30 26 25 26 26 27 25 23 22 21 18 16 15 15 14 10 9 9 8 8 11 12 7 8 12 15 16 17 18 18 18 17 17 18 18 19 21 21 20 22 24 25 25
32 29 27 27 26 25 24 22 18 18 17 17 16 14 14 13 11 12 11 11 13 16 16 17 18 18 20 21 22 21 20 21 20 20 18 17 16 17 18 21 22 24 25
32 29 30 27 26 24 23 21 21 18 19 16 13 12 13 12 15 18 19 17 18 19 20 22 23 22 22 22 22 22 21 21 21 19 17 17 17 19 20 22 25 26 26
33 33 31 30 28 24 20 19 19 20 19 18 16 14 10 13 15 21 23 23 25 25 25 25 25 24 24 24 24 24 23 23 22 21 20 19 18 19 21 23 24 25 26
36 33 33 32 28 23 19 17 18 21 21 20 19 17 14 16 19 21 23 26 28 28 27 28 27 27 26 26 25 24 24 25 25 24 23 21 19 18 19 19 23 26 28
42 38 35 32 29 26 24 23 21 23 23 22 21 19 19 21 24 25 26 28 29 29 29 29 30 30 29 28 27 27 27 26 26 27 26 23 20 18 17 21 24 28 30
42 45 42 39 33 34 33 30 24 20 19 21 22 22 23 25 26 26 27 29 31 31 31 31 32 32 31 30 30 30 28 28 29 29 28 24 23 21 21 23 28 29 30
35 40 43 40 37 34 34 29 22 14 14 16 20 24 26 27 27 28 30 31 32 33 34 34 35 35 35 32 32 31 22 25 26 26 27 26 25 24 22 26 32 34 37
34 34 38 40 39 39 38 35 30 22 16 15 16 19 23 26 28 30 32 33 34 36 36 37 38 38 37 37 35 28 14 10 14 22 27 29 28 25 23 29 34 37 38
28 31 33 35 37 38 40 40 35 27 20 15 16 19 21 25 28 32 35 35 36 38 39 40 41 42 43 41 41 40 40 41 25 19 25 23 25 25 24 31 35 37 38
21 25 28 30 31 32 36 38 37 34 30 25 24 24 24 27 31 33 36 39 39 41 41 43 45 47 47 48 46 47 46 45 47 45 46 33 28 25 30 36 37 37 36
31 27 24 23 26 28 30 32 34 36 34 33 31 30 30 32 32 33 33 37 41 44 45 47 49 52 52 54 53 53 54 52 49 47 48 47 45 37 36 40 38 34 35
Wind_Direction_850mb
160 159 151 148 144 137 129 123 112 99 93 97 101 102 105 106 99 89 102 97 83 85 86 90 88 86 82 80 76 72 70 69 70 72 72 72 72 72 72 71 72 70 64
162 155 159 151 149 144 134 129 123 110 105 102 97 96 97 99 96 87 95 94 87 85 92 91 87 80 76 74 70 66 64 65 64 61 66 69 68 69 71 69 69 69 64
161 159 158 155 153 148 137 134 130 123 117 111 106 104 100 95 93 91 87 85 86 88 86 84 84 79 74 67 64 63 62 61 56 52 60 67 66 66 64 60 58 58 55
156 158 161 157 156 150 146 143 140 127 120 109 104 102 104 101 96 92 92 92 91 92 92 90 84 80 74 68 63 60 58 56 51 53 69 73 67 62 63 62 60 57 56
164 171 165 157 158 157 151 148 142 136 126 116 122 105 107 104 98 92 93 95 101 103 100 98 94 84 76 71 64 59 57 53 51 57 66 71 72 60 56 57 58 58 59
174 173 166 160 159 157 155 151 145 141 135 131 134 117 109 102 99 102 102 102 102 104 105 100 94 83 74 66 58 54 53 53 53 56 61 66 69 67 61 55 50 44 42
174 168 167 164 161 157 157 153 148 147 142 135 136 127 117 106 103 106 108 107 111 113 107 98 85 68 51 51 49 44 43 47 54 60 63 63 63 66 61 56 52 43 32
186 165 170 169 164 159 159 157 156 152 150 152 139 139 132 128 125 118 115 115 121 123 118 104 83 62 47 33 33 37 40 40 46 57 63 63 58 57 55 52 44 34 31
200 198 178 177 168 163 165 164 162 158 153 158 155 165 147 155 152 151 151 139 140 143 136 110 80 58 39 24 31 42 43 44 46 46 52 54 50 47 48 45 40 37 34
207 203 192 187 182 175 176 173 173 172 174 167 170 183 194 195 192 187 181 175 174 184 185 174 143 73 32 25 28 35 31 31 36 40 48 46 38 36 34 31 25 16 6
209 198 198 190 188 184 184 184 186 187 185 189 200 209 221 219 209 197 194 194 185 189 203 221 222 288 332 340 352 338 334 342 352 4 13 14 7 355 354 351 344 338 334
203 201 189 192 196 194 192 194 193 197 198 206 215 223 224 222 230 218 208 203 206 217 231 248 258 275 284 280 291 299 284 288 303 316 328 336 325 326 326 324 322 320 320
200 202 198 195 201 205 204 203 202 201 208 214 220 218 217 227 192 202 213 217 218 231 242 251 267 277 291 292 287 290 292 293 295 299 305 311 314 315 315 316 315 315 314
205 203 204 201 206 208 207 208 210 214 222 227 222 215 222 226 209 223 240 233 236 249 248 261 277 274 282 291 294 295 299 296 289 290 291 298 304 307 309 310 310 309 311
212 207 206 206 206 210 210 211 214 219 223 226 228 227 234 233 242 237 265 261 256 281 295 291 290 283 286 287 289 289 290 292 291 292 294 298 302 307 312 315 318 320 319
215 213 213 212 211 216 216 219 221 224 225 227 231 234 240 247 246 250 266 280 275 280 285 293 294 291 293 292 293 291 290 291 290 292 296 301 308 310 315 319 321 323 323
226 217 219 218 215 217 218 223 225 224 226 228 234 238 248 249 254 253 264 275 288 288 290 292 293 293 290 289 288 287 285 287 287 289 294 302 307 311 316 319 322 325 326
231 228 224 220 218 218 217 225 232 233 237 236 237 242 255 269 287 267 267 277 288 288 289 293 293 293 290 288 285 282 281 282 284 287 291 296 301 306 311 319 325 329 328
235 231 227 225 223 222 220 226 236 239 246 248 249 258 274 281 292 285 275 276 281 285 289 293 296 295 293 290 286 282 278 278 281 283 286 290 294 298 305 316 322 324 322
235 231 229 227 223 219 222 228 237 243 248 247 250 261 272 279 287 288 284 281 281 284 289 292 294 294 293 290 286 283 281 280 279 278 279 282 286 293 301 313 316 317 314
233 229 225 223 220 219 219 225 237 253 259 262 266 270 273 278 284 287 286 285 284 285 286 288 291 291 288 288 286 285 283 280 277 274 273 272 278 285 297 306 311 311 307
224 227 225 227 228 228 229 233 241 258 269 271 271 273 275 281 287 291 290 287 284 284 285 287 289 290 289 286 283 287 291 282 273 265 264 266 271 276 288 302 305 305 307
206 213 218 225 229 230 232 232 238 241 258 280 306 309 300 289 289 289 290 287 284 283 283 283 285 285 284 281 280 271 283 267 291 281 267 267 263 265 280 297 303 309 307
192 200 205 215 222 227 232 235 243 254 270 296 311 315 306 297 295 290 287 285 284 283 282 282 281 280 279 278 277 272 267 267 277 281 278 265 260 267 290 301 307 304 299
151 175 189 199 209 220 228 235 242 253 263 277 293 304 304 300 303 297 288 284 285 286 286 283 280 279 278 276 274 273 269 268 264 263 277 277 267 267 296 301 301 299 295
113 134 157 179 192 203 214 224 232 242 253 262 273 281 286 292 295 287 287 287 287 286 287 287 284 279 276 275 272 270 267 265 270 270 268 274 272 272 293 296 299 301 293